Location: Rockford
(42.2710°N, 89.0940°W)
Time: 20:50:53
(UTC-05:00)

SPOT 5 - Visible Passes

Search period start: 01 September 2014 00:00
Search period end: 11 September 2014 00:00
Orbit: 824 x 826 km, 98.6° (Epoch: 01 September)

Date Brightness Start Highest point End Pass type
(mag) Time Alt. Az. Time Alt. Az. Time Alt. Az.
01 Sep 4.6 20:44:08 17° E 20:46:05 20° ENE 20:49:55 10° NNE visible
01 Sep 3.5 22:25:36 57° WSW 22:25:49 58° W 22:31:08 10° NNW visible
02 Sep 5.0 20:24:39 11° E 20:27:00 14° ENE 20:29:43 10° NNE visible
02 Sep 3.0 22:06:07 79° SSW 22:06:27 85° WSW 22:11:51 10° NNW visible
02 Sep 5.8 23:47:35 10° W 23:47:35 10° W 23:48:07 10° W visible
03 Sep 3.1 21:46:39 62° ESE 21:47:07 66° ENE 21:52:27 10° N visible
03 Sep 5.4 23:28:07 16° W 23:28:07 16° W 23:31:04 10° NW visible
04 Sep 3.5 21:27:11 42° E 21:27:51 45° ENE 21:32:57 10° N visible
04 Sep 4.9 23:08:39 24° W 23:08:39 24° W 23:12:33 10° NW visible
05 Sep 4.0 21:07:43 29° E 21:08:39 31° ENE 21:13:18 10° N visible
05 Sep 4.4 22:49:10 35° W 22:49:10 35° W 22:53:39 10° NNW visible
06 Sep 4.5 20:48:14 20° E 20:49:29 22° ENE 20:53:29 10° NNE visible
06 Sep 3.7 22:29:42 52° W 22:29:42 52° W 22:34:33 10° NNW visible
07 Sep 4.8 20:28:46 14° E 20:30:23 15° ENE 20:33:23 10° NNE visible
07 Sep 3.2 22:10:14 75° WNW 22:10:14 75° WNW 22:15:18 10° NNW visible
08 Sep 5.2 20:10:34 10° ENE 20:11:21 10° NE 20:12:08 10° NE visible
08 Sep 3.1 21:50:46 70° NE 21:50:46 70° NE 21:55:55 10° N visible
08 Sep 5.6 23:32:14 14° WNW 23:32:14 14° WNW 23:34:16 10° NW visible
09 Sep 3.4 21:31:18 48° ENE 21:31:18 48° ENE 21:36:26 10° N visible
09 Sep 5.2 23:12:46 21° WNW 23:12:46 21° WNW 23:15:52 10° NW visible
10 Sep 3.9 21:11:50 33° ENE 21:12:03 33° ENE 21:16:49 10° N visible
10 Sep 4.7 22:53:18 30° WNW 22:53:18 30° WNW 22:57:01 10° NNW visible
